[[{"header":{"parameterUnit":"m.s-1","parameterCategory":2,"la1":30.2991,"la2":30.254,"lo1":-89.0895,"lo2":-89.0444,"dy":0.0017,"dx":0.0017,"nx":28,"ny":28,"refTime":"2024-03-20T03:00:00:Z","depth":"0","parameterNumber":2,"parameterNumberName":"U-component_of_CURRENTS"},"data":[0,0,0,0,0,0,0,0,0,0,0,0,0,0,0,0,0,0,0,0,0,0,0,0,0,0,0,0,0,0,0,0,0,0,0,0,0,0,0,0,0,0,0,0,0,0,0,0,0,0,0,0,0,0,0,0,0,0,-0.2118,-0.2119,0,-0.2117,-0.2117,-0.2116,-0.209,-0.209,-0.209,-0.209,-0.1913,-0.1908,-0.1904,0,0,0,0,0,0,0,0,0,0,0,0,0,-0.2042,-0.2044,-0.2118,-0.2119,-0.212,-0.2118,-0.2117,-0.2116,-0.209,-0.209,-0.209,-0.209,-0.1914,-0.1909,-0.1903,0,0,0,0,0,0,0,0,0,0,0,0,0,-0.2056,-0.2044,-0.2118,-0.2111,-0.2111,-0.2118,-0.2117,-0.2116,-0.209,-0.209,-0.209,-0.209,-0.1916,-0.191,-0.1903,-0.1863,0,0,-0.1881,-0.1878,0,0,0,0,0,0,0,0,-0.2055,-0.2058,-0.2112,-0.2112,-0.2111,-0.2109,-0.2026,-0.2025,-0.209,-0.2092,-0.209,-0.209,-0.1966,-0.1955,-0.1949,-0.1854,-0.1847,-0.1881,-0.1877,-0.1874,-0.1872,0,0,0,0,0,0,0,-0.2055,-0.2058,-0.2112,-0.2112,-0.2112,-0.2089,-0.2091,-0.2025,-0.2022,-0.2091,-0.2091,-0.2101,-0.1964,-0.1956,-0.1944,-0.1844,-0.1881,-0.1875,-0.1871,-0.1868,-0.1711,-0.1711,0,0,0,0,0,0,-0.2071,-0.2057,-0.2112,-0.2112,-0.209,-0.2092,-0.2093,-0.2105,-0.2026,-0.2017,-0.2101,-0.21,-0.1968,-0.1953,-0.1938,-0.1905,-0.1874,-0.1867,-0.1863,-0.1711,-0.1711,-0.1711,0,0,0,0,0,0,-0.2069,-0.2076,-0.2112,-0.2089,-0.2093,-0.2094,-0.2107,-0.2105,-0.2094,-0.2037,-0.2023,-0.2093,-0.1967,-0.1948,-0.1887,-0.1896,-0.1864,-0.1858,-0.1711,-0.1711,-0.1711,-0.1825,0,0,0,0,0,0,-0.2067,-0.2075,-0.2079,-0.2091,-0.2095,-0.2111,-0.2108,-0.2106,-0.2104,-0.2102,-0.2025,-0.2009,-0.1966,-0.1898,-0.188,-0.1886,-0.1852,-0.1711,-0.1711,-0.1711,-0.1821,-0.1829,-0.1835,0,0,0,0,0,-0.2064,-0.2072,-0.2079,-0.2085,-0.2104,-0.2111,-0.211,-0.2105,-0.2104,-0.2095,-0.2054,-0.2011,-0.1885,-0.1892,-0.1871,-0.1876,-0.1711,-0.1711,-0.1711,-0.1818,-0.1827,-0.1835,0,0,0,0,0,0,-0.2029,-0.2072,-0.2079,-0.2096,-0.2102,-0.2109,-0.2109,-0.2105,-0.2069,-0.2065,-0.2005,-0.1986,-0.1943,-0.1885,-0.1894,-0.1829,-0.1792,-0.1788,-0.188,-0.1888,-0.1895,-0.1894,-0.1847,0,0,0,0,0,-0.203,-0.2056,-0.2077,-0.209,-0.2098,-0.2102,-0.2103,-0.2103,-0.2083,-0.2069,-0.202,-0.1967,-0.1927,-0.1889,-0.184,-0.1791,-0.1747,-0.178,-0.1787,-0.1794,-0.1778,-0.1744,-0.1747,-0.1711,-0.1711,-0.1711,0,0,-0.2023,-0.2049,-0.2063,-0.2086,-0.2095,-0.2107,-0.21,-0.2108,-0.2115,-0.205,-0.2028,-0.1988,-0.1921,-0.1887,-0.186,-0.1837,-0.1783,-0.1794,-0.18,-0.178,-0.1744,-0.1748,-0.1751,-0.1711,-0.1711,-0.1711,0,0,-0.2025,-0.2045,-0.2067,-0.2077,-0.21,-0.2106,-0.211,-0.2114,-0.2111,-0.2092,-0.2058,-0.2029,-0.1948,-0.1921,-0.1894,-0.1901,-0.183,-0.1873,-0.1897,-0.1866,-0.1869,-0.1871,-0.1837,-0.1835,-0.1868,-0.1869,-0.1869,0,-0.2016,-0.2017,-0.2068,-0.2087,-0.207,-0.2109,-0.2092,-0.2126,-0.2106,-0.2078,-0.2094,-0.2011,-0.1975,-0.1933,-0.195,-0.1921,-0.1876,-0.188,-0.1878,-0.1879,-0.1879,-0.1843,-0.184,-0.1874,-0.1873,-0.1873,-0.1872,0,-0.2033,-0.2017,-0.2027,-0.2064,-0.2075,-0.2054,-0.2107,-0.211,-0.2115,-0.212,-0.2087,-0.2073,-0.1999,-0.2015,-0.1987,-0.1961,-0.1923,-0.1905,-0.1866,-0.189,-0.185,-0.1845,-0.1882,-0.188,-0.1878,-0.1877,0,0,-0.2009,-0.2025,-0.2018,-0.1972,-0.2027,-0.2012,-0.2065,-0.2052,-0.2032,-0.2084,-0.203,-0.2058,-0.2038,-0.2005,-0.1984,-0.1988,-0.1987,-0.1944,-0.194,-0.1926,-0.19,-0.1662,-0.1633,-0.1961,-0.196,-0.1959,-0.1879,0,-0.1964,-0.1921,-0.1972,-0.191,-0.1858,-0.1913,-0.1937,-0.1963,-0.1981,-0.1959,-0.2011,-0.197,-0.2042,-0.1992,-0.202,-0.1966,-0.1971,-0.2008,-0.1862,-0.1858,-0.1656,-0.1617,-0.1369,-0.1256,-0.1873,-0.1872,-0.1871,0,-0.1916,-0.1876,-0.179,-0.1724,-0.1715,-0.172,-0.1681,-0.1715,-0.1767,-0.1783,-0.1815,-0.1838,-0.1862,-0.1916,-0.1916,-0.1925,-0.1915,-0.192,-0.1915,-0.1639,-0.1606,-0.1324,-0.1222,-0.1171,-0.1862,-0.1863,-0.1863,0,-0.1756,-0.1715,-0.1603,-0.1591,-0.159,-0.1557,-0.1566,-0.1622,-0.1627,-0.1657,-0.1648,-0.1703,-0.1689,-0.1734,-0.1777,-0.1818,-0.176,-0.1807,-0.1605,-0.1589,-0.1316,-0.1275,-0.1149,-0.1801,-0.1802,-0.1802,-0.1802,0,-0.1609,-0.1525,-0.1505,-0.1445,-0.133,-0.1395,-0.1325,-0.1363,-0.1413,-0.1406,-0.1525,-0.1521,-0.1639,-0.1642,-0.1707,-0.1605,-0.17,-0.1575,-0.1532,-0.1347,-0.1311,-0.1201,-0.1257,-0.1799,-0.1799,-0.18,-0.1801,0,-0.1443,-0.1428,-0.1301,-0.1257,-0.1246,-0.1164,-0.1194,-0.1168,-0.1236,-0.123,-0.1238,-0.1343,-0.1319,-0.1414,-0.1438,-0.1446,-0.1351,-0.1369,-0.1136,-0.1063,-0.0775,-0.0846,-0.0786,-0.081,-0.11,-0.1094,-0.1088,0,-0.1335,-0.1254,-0.1163,-0.1102,-0.1076,-0.1008,-0.0994,-0.1063,-0.1072,-0.1129,-0.1113,-0.1091,-0.1033,-0.0965,-0.0948,-0.0915,-0.1086,-0.0704,-0.0733,-0.0673,-0.0726,-0.0925,-0.0971,-0.0451,-0.0441,-0.0433,-0.0426,0,-0.1141,-0.1125,-0.1035,-0.093,-0.0864,-0.0813,-0.0798,-0.0789,-0.0888,-0.0866,-0.0826,-0.0755,-0.063,-0.0423,-0.0352,-0.037,-0.0614,-0.0519,-0.0521,-0.0225,-0.037,-0.0399,-0.0625,-0.035,-0.0357,-0.0363,-0.0367,-0.037,-0.1005,-0.0909,-0.0826,-0.0728,-0.0672,-0.0625,-0.0563,-0.0579,-0.0539,-0.0476,-0.05,-0.0291,-0.0039,0.0161,0.0126,0.0279,-0.0037,0.0298,0.0195,-0.0026,0.0011,-0.0019,0.0352,0.0349,0.0346,0.0343,0.0341,0,-0.0807,-0.0748,-0.0651,-0.0526,-0.0455,-0.0477,-0.0445,-0.0382,-0.029,-0.0167,-0.0029,0.0366,0.0664,0.0741,0.095,0.0978,0.0748,0.0915,0.0668,0.0569,0.056,0.066,0.1198,0.1198,0.1198,0.1198,0.1197,0.1197,-0.0688,-0.0552,-0.0527,-0.0355,-0.0298,-0.0172,-0.0135,-0.0051,0.0052,0.034,0.0591,0.0764,0.0941,0.1246,0.1375,0.134,0.1072,0.1139,0.086,0.0893,0.0823,0.0757,0.0841,0.1408,0.1408,0.0903,0.09,0.0897]},{"header":{"parameterUnit":"m.s-1","parameterCategory":2,"la1":30.2991,"la2":30.254,"lo1":-89.0895,"lo2":-89.0444,"dy":0.0017,"dx":0.0017,"nx":28,"ny":28,"refTime":"2024-03-20T03:00:00:Z","depth":"0","parameterNumber":3,"parameterNumberName":"V-component_of_CURRENTS"},"data":[0,0,0,0,0,0,0,0,0,0,0,0,0,0,0,0,0,0,0,0,0,0,0,0,0,0,0,0,0,0,0,0,0,0,0,0,0,0,0,0,0,0,0,0,0,0,0,0,0,0,0,0,0,0,0,0,0,0,-0.0055,-0.0055,0,-0.0041,-0.0041,-0.0041,-0.0041,-0.0041,-0.0041,-0.0042,-0.0023,-0.0022,-0.0022,0,0,0,0,0,0,0,0,0,0,0,0,0,-0.0108,-0.0107,-0.0055,-0.0055,-0.0055,-0.0041,-0.0041,-0.0041,-0.0041,-0.0041,-0.0042,-0.0042,-0.0023,-0.0022,-0.0022,0,0,0,0,0,0,0,0,0,0,0,0,0,-0.009,-0.0107,-0.0055,-0.0052,-0.0052,-0.0041,-0.0041,-0.0041,-0.0041,-0.0041,-0.0042,-0.0042,-0.0023,-0.0022,-0.0022,-0.0015,0,0,-0.0019,-0.0019,0,0,0,0,0,0,0,0,-0.0091,-0.0088,-0.0053,-0.0052,-0.0052,-0.0042,-0.0053,-0.0032,-0.0041,-0.0047,-0.0042,-0.0042,-0.0028,-0.0027,-0.0026,-0.0014,-0.0013,-0.0019,-0.0018,-0.0018,-0.0018,0,0,0,0,0,0,0,-0.0092,-0.0089,-0.0051,-0.0053,-0.0052,-0.006,-0.0058,-0.0049,-0.0038,-0.0046,-0.0046,-0.0042,-0.0028,-0.0027,-0.0025,-0.0013,-0.0019,-0.0018,-0.0018,-0.0017,-0.0002,-0.0002,0,0,0,0,0,0,-0.009,-0.009,-0.0052,-0.0051,-0.0071,-0.0059,-0.0056,-0.0046,-0.0038,-0.0037,-0.0042,-0.0042,-0.0028,-0.0026,-0.0025,-0.0054,-0.0018,-0.0017,-0.0017,-0.0002,-0.0002,-0.0002,0,0,0,0,0,0,-0.0091,-0.0086,-0.0052,-0.007,-0.0066,-0.0058,-0.0047,-0.0046,-0.0046,-0.0035,-0.0033,-0.0043,-0.0028,-0.0026,-0.0027,-0.0052,-0.0017,-0.0016,-0.0002,-0.0002,-0.0002,-0.0089,0,0,0,0,0,0,-0.0092,-0.0087,-0.0087,-0.0069,-0.0064,-0.0065,-0.0046,-0.0045,-0.0043,-0.0043,-0.0035,-0.0033,-0.0028,-0.0028,-0.0026,-0.005,-0.0016,-0.0002,-0.0002,-0.0002,-0.0086,-0.0092,-0.0097,0,0,0,0,0,-0.0094,-0.0105,-0.0087,-0.0083,-0.0062,-0.0066,-0.0065,-0.0061,-0.0043,-0.0058,-0.0044,-0.0034,-0.0027,-0.0028,-0.0025,-0.005,-0.0002,-0.0002,-0.0002,-0.0083,-0.0091,-0.0097,0,0,0,0,0,0,-0.0143,-0.0105,-0.0085,-0.0087,-0.008,-0.0066,-0.0078,-0.0061,-0.006,-0.0057,-0.0038,-0.0037,-0.0047,-0.0027,-0.0028,-0.0041,-0.0011,-0.0011,-0.0074,-0.008,-0.0086,-0.0103,-0.0015,0,0,0,0,0,-0.0146,-0.0139,-0.011,-0.0115,-0.0109,-0.0087,-0.0087,-0.0079,-0.0071,-0.007,-0.0061,-0.0047,-0.0044,-0.0046,-0.0039,-0.0047,-0.0071,-0.0057,-0.0062,-0.0067,-0.0077,-0.0141,-0.0155,-0.0003,-0.0003,-0.0003,0,0,-0.0168,-0.0146,-0.0143,-0.0124,-0.0114,-0.0121,-0.0089,-0.0094,-0.0106,-0.0067,-0.0086,-0.0068,-0.0049,-0.0065,-0.0067,-0.0054,-0.0125,-0.0068,-0.0073,-0.0079,-0.0143,-0.0159,-0.0172,-0.0003,-0.0003,-0.0003,0,0,-0.0209,-0.0184,-0.0188,-0.018,-0.0163,-0.0155,-0.0154,-0.0136,-0.0138,-0.0145,-0.012,-0.012,-0.011,-0.0112,-0.0108,-0.0135,-0.0151,-0.0121,-0.0172,-0.0235,-0.0249,-0.0262,-0.0332,-0.035,-0.0128,-0.0128,-0.0128,0,-0.0238,-0.0224,-0.0198,-0.02,-0.0193,-0.017,-0.0176,-0.0185,-0.0174,-0.0174,-0.0164,-0.0167,-0.0139,-0.0174,-0.0171,-0.0153,-0.0192,-0.0155,-0.0248,-0.0261,-0.0272,-0.034,-0.036,-0.0132,-0.0131,-0.0131,-0.0131,0,-0.0275,-0.0263,-0.027,-0.0256,-0.0257,-0.0261,-0.0253,-0.0261,-0.025,-0.0249,-0.0277,-0.0266,-0.0264,-0.0256,-0.0217,-0.0277,-0.028,-0.0252,-0.0243,-0.0294,-0.0361,-0.038,-0.0138,-0.0136,-0.0135,-0.0134,0,0,-0.0346,-0.0298,-0.0302,-0.029,-0.0275,-0.0283,-0.0304,-0.0311,-0.034,-0.0347,-0.0395,-0.0377,-0.0367,-0.036,-0.0335,-0.0379,-0.0479,-0.0345,-0.0347,-0.0436,-0.0639,-0.0462,-0.0465,-0.0478,-0.0481,-0.0483,-0.0661,0,-0.038,-0.0372,-0.0345,-0.0361,-0.0356,-0.0334,-0.0366,-0.0375,-0.0388,-0.0439,-0.0446,-0.0483,-0.0414,-0.0428,-0.046,-0.0475,-0.0528,-0.0435,-0.0555,-0.0559,-0.0414,-0.048,-0.0357,-0.0488,-0.0679,-0.0682,-0.0685,0,-0.0425,-0.0407,-0.0404,-0.0388,-0.0388,-0.0407,-0.0436,-0.0459,-0.0511,-0.0526,-0.0565,-0.0579,-0.0634,-0.0577,-0.0673,-0.062,-0.0626,-0.0647,-0.0654,-0.0469,-0.0415,-0.0461,-0.0515,-0.0557,-0.0713,-0.0711,-0.0709,0,-0.0475,-0.0454,-0.0444,-0.0437,-0.0429,-0.0436,-0.0444,-0.0481,-0.0519,-0.0593,-0.0649,-0.071,-0.0767,-0.0804,-0.0768,-0.0754,-0.0877,-0.087,-0.0735,-0.0725,-0.0629,-0.0602,-0.075,-0.095,-0.095,-0.0949,-0.0949,0,-0.0511,-0.051,-0.0466,-0.0468,-0.0487,-0.0473,-0.0526,-0.0538,-0.0612,-0.0659,-0.0701,-0.0752,-0.0824,-0.0868,-0.0846,-0.0822,-0.0937,-0.0762,-0.0758,-0.0651,-0.0625,-0.0657,-0.0695,-0.0956,-0.0954,-0.0953,-0.0952,0,-0.0554,-0.0523,-0.0518,-0.0504,-0.0504,-0.0519,-0.0556,-0.0608,-0.0667,-0.0744,-0.0777,-0.0843,-0.086,-0.0896,-0.0956,-0.091,-0.0882,-0.086,-0.0715,-0.0686,-0.0578,-0.0623,-0.0762,-0.0684,-0.081,-0.0807,-0.0804,0,-0.0559,-0.0559,-0.0542,-0.0541,-0.0529,-0.0551,-0.058,-0.0627,-0.0679,-0.075,-0.0795,-0.0842,-0.0761,-0.0793,-0.0752,-0.0733,-0.0757,-0.0632,-0.0554,-0.0563,-0.0616,-0.0672,-0.0601,-0.0507,-0.0502,-0.0497,-0.0494,0,-0.0569,-0.0567,-0.0556,-0.0557,-0.0572,-0.0601,-0.0636,-0.0683,-0.073,-0.0723,-0.0666,-0.0591,-0.0589,-0.0457,-0.0448,-0.0431,-0.0597,-0.0541,-0.0623,-0.0436,-0.0445,-0.0367,-0.0417,-0.0457,-0.0461,-0.0464,-0.0466,-0.0467,-0.0566,-0.0563,-0.0551,-0.0554,-0.0577,-0.0616,-0.0613,-0.0607,-0.0582,-0.0474,-0.0453,-0.0197,-0.0156,-0.0075,-0.0158,-0.0225,-0.0296,-0.0229,-0.0309,-0.0387,-0.0217,-0.0148,-0.0105,-0.0107,-0.0108,-0.0109,-0.011,0,-0.0544,-0.0539,-0.0544,-0.0548,-0.0568,-0.059,-0.0622,-0.055,-0.0401,-0.0201,0.0014,0.0358,0.0379,0.0277,0.0162,0.0034,-0.0053,-0.0072,-0.0191,-0.0141,-0.0159,-0.004,0.0111,0.0111,0.0111,0.0111,0.0111,0.0111,-0.0523,-0.0515,-0.052,-0.0523,-0.0531,-0.0512,-0.0498,-0.0316,-0.0136,0.0328,0.0668,0.0878,0.0894,0.0461,0.0171,0.008,-0.0048,-0.0108,-0.0162,-0.0248,-0.0272,-0.0294,-0.0194,-0.0078,-0.0078,-0.0065,-0.0066,-0.0066]}],[{"header":{"parameterUnit":"m.s-1","parameterCategory":2,"la1":30.2991,"la2":30.254,"lo1":-89.0895,"lo2":-89.0444,"dy":0.0017,"dx":0.0017,"nx":28,"ny":28,"refTime":"2024-03-20T03:00:00:Z","depth":"2","parameterNumber":2,"parameterNumberName":"U-component_of_CURRENTS"},"data":[0,0,0,0,0,0,0,0,0,0,0,0,0,0,0,0,0,0,0,0,0,0,0,0,0,0,0,0,0,0,0,0,0,0,0,0,0,0,0,0,0,0,0,0,0,0,0,0,0,0,0,0,0,0,0,0,0,0,-0.1601,-0.1601,0,-0.1568,-0.1567,-0.1566,-0.153,-0.153,-0.153,-0.153,-0.1444,-0.1442,-0.1439,0,0,0,0,0,0,0,0,0,0,0,0,0,-0.1507,-0.1509,-0.1601,-0.1601,-0.1601,-0.1569,-0.1567,-0.1566,-0.153,-0.153,-0.153,-0.153,-0.1445,-0.1442,-0.1439,0,0,0,0,0,0,0,0,0,0,0,0,0,-0.1511,-0.1509,-0.16,-0.1585,-0.1584,-0.1569,-0.1567,-0.1566,-0.153,-0.153,-0.153,-0.153,-0.1446,-0.1442,-0.1438,-0.1411,0,0,-0.1427,-0.1426,0,0,0,0,0,0,0,0,-0.1511,-0.1514,-0.1587,-0.1586,-0.1585,-0.156,-0.1503,-0.1514,-0.1529,-0.1542,-0.153,-0.153,-0.1483,-0.1476,-0.1459,-0.1407,-0.1403,-0.1427,-0.1425,-0.1423,-0.1422,0,0,0,0,0,0,0,-0.1511,-0.1514,-0.158,-0.1587,-0.1586,-0.1538,-0.1539,-0.1504,-0.1504,-0.1541,-0.154,-0.1549,-0.1481,-0.1463,-0.1457,-0.1402,-0.1427,-0.1424,-0.1422,-0.142,-0.1325,-0.1325,0,0,0,0,0,0,-0.1537,-0.1515,-0.1581,-0.158,-0.1556,-0.154,-0.1541,-0.1561,-0.1506,-0.15,-0.1549,-0.1547,-0.1469,-0.1461,-0.1454,-0.1405,-0.1423,-0.142,-0.1418,-0.1326,-0.1325,-0.1325,0,0,0,0,0,0,-0.1536,-0.1544,-0.1582,-0.1551,-0.1554,-0.1543,-0.1565,-0.1561,-0.156,-0.1514,-0.1505,-0.1555,-0.1469,-0.1459,-0.1435,-0.1402,-0.1418,-0.1415,-0.1326,-0.1326,-0.1325,-0.1316,0,0,0,0,0,0,-0.1533,-0.1544,-0.1564,-0.1554,-0.1557,-0.159,-0.1566,-0.156,-0.1568,-0.1566,-0.1516,-0.1508,-0.1468,-0.1441,-0.1431,-0.1397,-0.1412,-0.1326,-0.1326,-0.1325,-0.1317,-0.1315,-0.1314,0,0,0,0,0,-0.153,-0.1559,-0.1566,-0.1574,-0.1588,-0.1592,-0.1588,-0.1574,-0.1568,-0.1572,-0.1537,-0.151,-0.143,-0.1438,-0.1427,-0.1391,-0.1327,-0.1326,-0.1325,-0.1317,-0.1316,-0.1314,0,0,0,0,0,0,-0.152,-0.1558,-0.1565,-0.1603,-0.1608,-0.1589,-0.1595,-0.1587,-0.1562,-0.156,-0.1511,-0.15,-0.146,-0.144,-0.1451,-0.1365,-0.1371,-0.1368,-0.1369,-0.1367,-0.1366,-0.1291,-0.1409,0,0,0,0,0,-0.1534,-0.1571,-0.1586,-0.1616,-0.1624,-0.1612,-0.1613,-0.1608,-0.1589,-0.1578,-0.1539,-0.1496,-0.1445,-0.1423,-0.1382,-0.1344,-0.1319,-0.1314,-0.1312,-0.1311,-0.1245,-0.1221,-0.1211,-0.1323,-0.1323,-0.1323,0,0,-0.1541,-0.1565,-0.1587,-0.1617,-0.1617,-0.1582,-0.1612,-0.1624,-0.1571,-0.1572,-0.1498,-0.1493,-0.1437,-0.1383,-0.1363,-0.1365,-0.1277,-0.131,-0.1309,-0.1242,-0.1219,-0.1208,-0.1198,-0.1322,-0.1322,-0.1322,0,0,-0.1532,-0.1594,-0.1597,-0.1602,-0.1618,-0.1596,-0.1607,-0.1597,-0.1578,-0.1538,-0.1506,-0.1478,-0.1423,-0.1354,-0.1315,-0.1283,-0.1274,-0.1298,-0.122,-0.1201,-0.119,-0.1181,-0.1178,-0.1168,-0.1294,-0.1294,-0.1294,0,-0.1532,-0.1532,-0.1596,-0.1578,-0.1564,-0.1595,-0.1552,-0.1528,-0.1504,-0.1476,-0.1515,-0.141,-0.138,-0.1267,-0.1249,-0.1269,-0.1278,-0.1233,-0.1197,-0.1186,-0.1176,-0.1176,-0.1165,-0.1294,-0.1294,-0.1294,-0.1294,0,-0.1492,-0.1493,-0.1498,-0.1471,-0.1469,-0.1457,-0.1437,-0.1429,-0.1426,-0.1385,-0.133,-0.1311,-0.1242,-0.1244,-0.1224,-0.1133,-0.1172,-0.1205,-0.1197,-0.1164,-0.1167,-0.1156,-0.1293,-0.1293,-0.1293,-0.1293,0,0,-0.1483,-0.1466,-0.1469,-0.1432,-0.1416,-0.1406,-0.1344,-0.1282,-0.1235,-0.1228,-0.1159,-0.1081,-0.1105,-0.1059,-0.1065,-0.1033,-0.0994,-0.1084,-0.1083,-0.1072,-0.0973,-0.0837,-0.0813,-0.1046,-0.1043,-0.1041,-0.102,0,-0.1416,-0.1344,-0.1362,-0.1279,-0.1226,-0.1256,-0.1193,-0.1156,-0.1133,-0.1084,-0.1066,-0.1005,-0.1023,-0.1025,-0.0987,-0.099,-0.0956,-0.0996,-0.1009,-0.1008,-0.0884,-0.079,-0.0798,-0.0763,-0.1008,-0.1006,-0.1005,0,-0.1325,-0.1304,-0.1204,-0.1167,-0.1158,-0.1115,-0.1057,-0.1018,-0.096,-0.0958,-0.091,-0.0907,-0.0826,-0.0891,-0.0828,-0.087,-0.0887,-0.0902,-0.0904,-0.0746,-0.0846,-0.0826,-0.0733,-0.0986,-0.0987,-0.0989,-0.099,0,-0.1219,-0.1178,-0.1092,-0.1079,-0.1046,-0.1028,-0.1017,-0.0966,-0.0938,-0.0877,-0.086,-0.0789,-0.0778,-0.0767,-0.0782,-0.0815,-0.0752,-0.0817,-0.0703,-0.0699,-0.0675,-0.0669,-0.075,-0.075,-0.075,-0.075,-0.075,0,-0.1092,-0.1041,-0.1046,-0.1009,-0.0955,-0.0966,-0.0907,-0.0896,-0.0868,-0.0811,-0.0793,-0.0748,-0.075,-0.0727,-0.0748,-0.0664,-0.0727,-0.0618,-0.0645,-0.0676,-0.0671,-0.0836,-0.0846,-0.075,-0.075,-0.075,-0.075,0,-0.0952,-0.0947,-0.0881,-0.0884,-0.0888,-0.086,-0.0876,-0.0836,-0.0823,-0.0761,-0.0744,-0.0706,-0.0638,-0.0637,-0.0625,-0.0599,-0.0562,-0.0535,-0.0563,-0.0585,-0.0538,-0.0548,-0.036,-0.0354,-0.0349,-0.0345,-0.0342,0,-0.0862,-0.0802,-0.0805,-0.08,-0.0805,-0.0792,-0.0782,-0.0801,-0.0768,-0.0728,-0.0689,-0.0612,-0.0494,-0.0405,-0.035,-0.0288,-0.0428,-0.0306,-0.0299,-0.0432,-0.048,-0.0498,-0.0515,-0.0324,-0.0321,-0.0318,-0.0316,0,-0.0731,-0.0735,-0.071,-0.069,-0.0689,-0.0681,-0.0677,-0.0648,-0.0659,-0.0594,-0.0496,-0.0395,-0.026,-0.0141,-0.0065,-0.0075,-0.0295,-0.0235,-0.038,-0.0381,-0.0384,-0.0436,-0.0457,-0.0292,-0.0294,-0.0296,-0.0297,-0.0298,-0.0662,-0.0626,-0.0602,-0.058,-0.058,-0.0549,-0.0506,-0.0496,-0.0427,-0.0316,-0.0312,-0.0151,-0.0151,0.0092,0.0086,0.0055,0.0048,-0.0058,-0.0074,-0.0091,-0.0048,-0.0037,0.0124,0.0124,0.0124,0.0124,0.0124,0,-0.0556,-0.0526,-0.05,-0.0472,-0.0433,-0.0459,-0.0414,-0.0355,-0.0238,-0.0137,-0.001,0.0042,0.0158,0.0135,0.0207,0.0241,0.0147,0.0142,-0.0023,-0.0045,-0.0065,-0.0029,0.0152,0.0153,0.0153,0.0153,0,0,-0.0498,-0.0433,-0.0417,-0.0333,-0.0312,-0.0231,-0.0181,-0.0099,-0.0008,0.0136,0.0219,0.028,0.0249,0.0248,0.0213,0.0221,0.0088,0.0198,0.0176,-0.0031,-0.005,-0.0177,-0.0142,0,0,0,0,0]},{"header":{"parameterUnit":"m.s-1","parameterCategory":2,"la1":30.2991,"la2":30.254,"lo1":-89.0895,"lo2":-89.0444,"dy":0.0017,"dx":0.0017,"nx":28,"ny":28,"refTime":"2024-03-20T03:00:00:Z","depth":"2","parameterNumber":3,"parameterNumberName":"V-component_of_CURRENTS"},"data":[0,0,0,0,0,0,0,0,0,0,0,0,0,0,0,0,0,0,0,0,0,0,0,0,0,0,0,0,0,0,0,0,0,0,0,0,0,0,0,0,0,0,0,0,0,0,0,0,0,0,0,0,0,0,0,0,0,0,-0.0043,-0.0042,0,0.0021,0.0021,0.0022,0.0034,0.0034,0.0034,0.0033,0.0081,0.0083,0.0084,0,0,0,0,0,0,0,0,0,0,0,0,0,-0.0174,-0.0172,-0.0043,-0.0042,-0.0041,0.0021,0.0021,0.0022,0.0034,0.0034,0.0033,0.0033,0.0081,0.0083,0.0085,0,0,0,0,0,0,0,0,0,0,0,0,0,-0.0117,-0.0171,-0.0043,-0.0025,-0.0023,0.0021,0.0021,0.0022,0.0034,0.0034,0.0033,0.0033,0.008,0.0083,0.0085,0.0107,0,0,0.0092,0.0093,0,0,0,0,0,0,0,0,-0.012,-0.0113,-0.0029,-0.0026,-0.0024,0.0021,-0.0007,0.0051,0.0034,0.001,0.0033,0.0033,0.0062,0.0066,0.0075,0.0109,0.0112,0.0092,0.0094,0.0094,0.0095,0,0,0,0,0,0,0,-0.0124,-0.0115,-0.002,-0.0028,-0.0024,-0.0028,-0.002,0.0004,0.0035,0.0012,0.0014,0.0025,0.0063,0.0073,0.0076,0.0112,0.0092,0.0094,0.0096,0.0096,0.0246,0.0248,0,0,0,0,0,0,-0.0125,-0.0119,-0.0022,-0.0018,-0.0071,-0.0025,-0.0016,0.0005,0.0035,0.004,0.0025,0.0025,0.0069,0.0074,0.0078,0.0135,0.0094,0.0097,0.0098,0.0243,0.0247,0.0249,0,0,0,0,0,0,-0.0128,-0.0116,-0.0025,-0.0066,-0.0054,-0.0021,0.0002,0.0007,0.0024,0.0046,0.005,0.0039,0.0069,0.0075,0.0115,0.0136,0.0098,0.01,0.024,0.0244,0.0248,0.0231,0,0,0,0,0,0,-0.0132,-0.0118,-0.0106,-0.0065,-0.0051,0.001,0.0003,0.0008,0.0033,0.0033,0.0059,0.0063,0.0069,0.0112,0.0118,0.0139,0.0102,0.0237,0.0242,0.0247,0.0229,0.0234,0.0239,0,0,0,0,0,-0.0136,-0.0127,-0.0106,-0.0094,-0.0035,0.0011,0.0018,0.0036,0.0034,0.0048,0.007,0.0062,0.0148,0.0115,0.0122,0.0144,0.0235,0.0241,0.0246,0.0226,0.0233,0.0239,0,0,0,0,0,0,-0.0188,-0.0123,-0.01,-0.0072,-0.0026,0.0014,0.0023,0.0043,0.0071,0.0068,0.0084,0.009,0.0139,0.0154,0.0119,0.0209,0.0195,0.0203,0.0178,0.0185,0.019,0.014,0.0103,0,0,0,0,0,-0.0188,-0.016,-0.0096,-0.0075,-0.0051,-0.001,0.0009,0.003,0.0062,0.0074,0.0096,0.013,0.0169,0.0184,0.0222,0.0259,0.0235,0.0287,0.0292,0.0296,0.0265,0.0257,0.0256,0.0268,0.0268,0.0268,0,0,-0.0206,-0.0164,-0.015,-0.0083,-0.0051,-0.0023,-0.0,0.0034,0.0055,0.0075,0.0106,0.0148,0.0188,0.0235,0.0258,0.0245,0.0285,0.0303,0.0305,0.0272,0.0263,0.026,0.0258,0.0272,0.0272,0.0271,0,0,-0.0225,-0.0182,-0.0162,-0.0119,-0.0057,-0.0033,-0.0018,0.0038,0.0063,0.0111,0.0135,0.0184,0.0242,0.0269,0.0291,0.0351,0.0317,0.0381,0.0352,0.0346,0.0343,0.034,0.0311,0.0305,0.0377,0.0377,0.0377,0,-0.025,-0.021,-0.0151,-0.0117,-0.0096,-0.0038,-0.0021,0.0019,0.0081,0.0091,0.0122,0.0204,0.0254,0.0284,0.0319,0.0355,0.0333,0.0316,0.0345,0.0342,0.0339,0.0309,0.0303,0.0377,0.0377,0.0377,0.0377,0,-0.0249,-0.0214,-0.0201,-0.0142,-0.011,-0.0085,-0.0021,0.0015,0.0052,0.008,0.0135,0.0207,0.0244,0.0294,0.0326,0.0343,0.0328,0.0351,0.0309,0.0335,0.0305,0.0298,0.0376,0.0377,0.0377,0.0377,0,0,-0.0312,-0.0222,-0.0214,-0.0192,-0.0123,-0.0098,-0.0061,-0.0023,-0.0011,0.0061,0.0069,0.0171,0.0197,0.0225,0.0281,0.029,0.0282,0.0309,0.0309,0.0242,0.0237,0.0277,0.0274,0.0298,0.0297,0.0296,0.0223,0,-0.0332,-0.0283,-0.0239,-0.0213,-0.0186,-0.0132,-0.0112,-0.0068,-0.0017,0.0012,0.0075,0.0118,0.0174,0.0208,0.0222,0.0278,0.0264,0.0297,0.0253,0.0251,0.0253,0.0268,0.0256,0.0194,0.0216,0.0215,0.0214,0,-0.0343,-0.0309,-0.0282,-0.0241,-0.023,-0.0217,-0.0183,-0.015,-0.0101,-0.0062,-0.0028,0.0027,0.0068,0.0124,0.015,0.0164,0.0186,0.0217,0.0215,0.0243,0.028,0.0177,0.0181,0.0203,0.0204,0.0205,0.0206,0,-0.0394,-0.0344,-0.0331,-0.0309,-0.0254,-0.0249,-0.0235,-0.0184,-0.0156,-0.011,-0.0086,-0.0054,-0.0017,0.0009,0.0099,0.0115,0.0114,0.0146,0.0181,0.0182,0.0157,0.016,0.0127,0.0127,0.0127,0.0127,0.0127,0,-0.0419,-0.0406,-0.0354,-0.0335,-0.0343,-0.0296,-0.0297,-0.026,-0.022,-0.0197,-0.0134,-0.0095,-0.0043,-0.0011,0.0047,0.0094,0.0065,0.0156,0.0167,0.0158,0.0161,0.0163,0.0168,0.0124,0.0125,0.0125,0.0126,0,-0.0444,-0.0412,-0.0391,-0.0354,-0.0352,-0.035,-0.0328,-0.032,-0.0277,-0.0239,-0.0224,-0.0151,-0.0092,-0.0045,0.0004,0.0035,0.0081,0.0097,0.0077,0.0089,0.0154,0.016,0.0108,0.0109,0.011,0.011,0.0111,0,-0.0445,-0.043,-0.0399,-0.0399,-0.0381,-0.0381,-0.0382,-0.0349,-0.0314,-0.025,-0.0221,-0.017,-0.0087,-0.0022,0.005,0.0105,0.0099,0.0081,0.0129,0.0136,0.0152,0.0157,0.0162,0.008,0.008,0.008,0.008,0,-0.0442,-0.043,-0.0409,-0.0407,-0.0412,-0.0415,-0.0395,-0.0376,-0.0325,-0.0272,-0.018,-0.0117,-0.0034,0.0054,0.0103,0.0128,0.0079,0.0089,0.0081,0.0111,0.0111,0.0127,0.0132,0.0082,0.0081,0.0081,0.0081,0.0081,-0.0438,-0.0433,-0.0409,-0.0411,-0.042,-0.0417,-0.04,-0.0353,-0.0293,-0.0162,-0.014,-0.0019,-0.0004,0.0143,0.0151,0.0143,0.0162,0.0121,0.0119,0.0118,0.0152,0.0156,0.0139,0.0139,0.0139,0.0139,0.014,0,-0.0422,-0.0417,-0.0417,-0.0411,-0.0415,-0.0422,-0.0381,-0.0329,-0.0226,-0.0099,0.0012,0.005,0.0128,0.0151,0.0181,0.0178,0.0153,0.0126,0.0095,0.0094,0.0093,0.0125,0.0105,0.0105,0.0105,0.0105,0,0,-0.0412,-0.0403,-0.0403,-0.0399,-0.0398,-0.0372,-0.0338,-0.0243,-0.0125,0.003,0.0132,0.0212,0.0204,0.0195,0.0163,0.016,0.0127,0.0135,0.0163,0.0131,0.0131,0.0088,0.0137,0,0,0,0,0]}],[{"header":{"parameterUnit":"m.s-1","parameterCategory":2,"la1":30.2991,"la2":30.254,"lo1":-89.0895,"lo2":-89.0444,"dy":0.0017,"dx":0.0017,"nx":28,"ny":28,"refTime":"2024-03-20T03:00:00:Z","depth":"4","parameterNumber":2,"parameterNumberName":"U-component_of_CURRENTS"},"data":[0,0,0,0,0,0,0,0,0,0,0,0,0,0,0,0,0,0,0,0,0,0,0,0,0,0,0,0,0,0,0,0,0,0,0,0,0,0,0,0,0,0,0,0,0,0,0,0,0,0,0,0,0,0,0,0,0,0,-0.0219,-0.0219,0,-0.0266,-0.0267,-0.0267,-0.0299,-0.0299,-0.0299,-0.0299,-0.037,-0.0372,-0.0374,0,0,0,0,0,0,0,0,0,0,0,0,0,-0.0196,-0.0196,-0.0219,-0.0219,-0.0219,-0.0266,-0.0267,-0.0268,-0.0299,-0.0299,-0.0299,-0.0299,-0.0369,-0.0371,-0.0374,0,0,0,0,0,0,0,0,0,0,0,0,0,-0.0224,-0.0196,-0.0219,-0.0238,-0.024,-0.0265,-0.0267,-0.0268,-0.0299,-0.0299,-0.0299,-0.0299,-0.0368,-0.0371,-0.0374,-0.0394,0,0,-0.0383,-0.0384,0,0,0,0,0,0,0,0,-0.0222,-0.0225,-0.0235,-0.0237,-0.0239,-0.0274,-0.0284,-0.031,-0.0299,-0.028,-0.0299,-0.0299,-0.0338,-0.0343,-0.0357,-0.0398,-0.0401,-0.0383,-0.0385,-0.0386,-0.0387,0,0,0,0,0,0,0,-0.022,-0.0223,-0.0241,-0.0235,-0.0238,-0.0258,-0.0262,-0.029,-0.0312,-0.0282,-0.0283,-0.0283,-0.0339,-0.0354,-0.0358,-0.0402,-0.0383,-0.0386,-0.0388,-0.0389,-0.0487,-0.0488,0,0,0,0,0,0,-0.0206,-0.0221,-0.0239,-0.0242,-0.0226,-0.0258,-0.0262,-0.0265,-0.0311,-0.0317,-0.0283,-0.0285,-0.0349,-0.0355,-0.0361,-0.0412,-0.0386,-0.0389,-0.0391,-0.0486,-0.0487,-0.0488,0,0,0,0,0,0,-0.0205,-0.0207,-0.0237,-0.023,-0.0235,-0.0258,-0.0261,-0.0266,-0.0283,-0.0312,-0.0319,-0.0295,-0.0349,-0.0357,-0.0393,-0.0413,-0.039,-0.0393,-0.0485,-0.0487,-0.0488,-0.0497,0,0,0,0,0,0,-0.0204,-0.0207,-0.0207,-0.0229,-0.0234,-0.0257,-0.0261,-0.0267,-0.0281,-0.0284,-0.0324,-0.033,-0.0349,-0.0388,-0.0396,-0.0417,-0.0395,-0.0484,-0.0486,-0.0487,-0.0496,-0.0499,-0.0501,0,0,0,0,0,-0.0203,-0.0204,-0.0206,-0.0209,-0.0233,-0.0257,-0.0262,-0.028,-0.0282,-0.0294,-0.032,-0.0329,-0.0404,-0.0391,-0.04,-0.0423,-0.0483,-0.0485,-0.0487,-0.0495,-0.0498,-0.0501,0,0,0,0,0,0,-0.0193,-0.0208,-0.0211,-0.0215,-0.0235,-0.0261,-0.0272,-0.0281,-0.0312,-0.0317,-0.034,-0.0349,-0.0387,-0.0403,-0.0389,-0.0455,-0.0445,-0.0449,-0.0448,-0.0451,-0.0454,-0.0442,-0.0398,0,0,0,0,0,-0.0189,-0.0194,-0.0213,-0.0216,-0.0227,-0.0249,-0.026,-0.0276,-0.0301,-0.0315,-0.0344,-0.0375,-0.0402,-0.0423,-0.0451,-0.0489,-0.0484,-0.051,-0.0512,-0.0514,-0.0511,-0.0527,-0.0531,-0.0495,-0.0495,-0.0495,0,0,-0.0184,-0.0192,-0.0195,-0.0214,-0.0232,-0.0253,-0.0257,-0.028,-0.0303,-0.0318,-0.0364,-0.0384,-0.0412,-0.0455,-0.0474,-0.0472,-0.0518,-0.0517,-0.0518,-0.0514,-0.053,-0.0533,-0.0536,-0.0496,-0.0496,-0.0495,0,0,-0.0184,-0.0188,-0.0198,-0.0212,-0.0236,-0.0257,-0.0262,-0.0298,-0.0321,-0.0357,-0.0376,-0.0403,-0.0452,-0.0478,-0.0494,-0.0527,-0.0528,-0.0544,-0.0556,-0.0572,-0.0575,-0.0577,-0.0556,-0.0556,-0.0551,-0.0551,-0.0551,0,-0.0179,-0.0194,-0.0205,-0.0218,-0.0235,-0.0257,-0.0281,-0.0307,-0.0351,-0.0377,-0.0372,-0.0444,-0.0459,-0.0512,-0.0519,-0.0532,-0.0532,-0.054,-0.0574,-0.0577,-0.0579,-0.0557,-0.0557,-0.0551,-0.0551,-0.0551,-0.0551,0,-0.019,-0.0202,-0.021,-0.0237,-0.0257,-0.0281,-0.0314,-0.0348,-0.0371,-0.0396,-0.0451,-0.0474,-0.0516,-0.0527,-0.0528,-0.0567,-0.0557,-0.057,-0.0562,-0.0583,-0.0558,-0.0558,-0.0552,-0.0552,-0.0552,-0.0552,0,0,-0.0186,-0.0216,-0.022,-0.0248,-0.0273,-0.0304,-0.0336,-0.0388,-0.0423,-0.0457,-0.0496,-0.0533,-0.0546,-0.0564,-0.0583,-0.0592,-0.059,-0.0588,-0.0588,-0.0558,-0.0604,-0.0528,-0.052,-0.0617,-0.0618,-0.0618,-0.0572,0,-0.0201,-0.0244,-0.0246,-0.0295,-0.033,-0.035,-0.0386,-0.0429,-0.0459,-0.0501,-0.0526,-0.0565,-0.0563,-0.0583,-0.0594,-0.0592,-0.0595,-0.0599,-0.0595,-0.0594,-0.0518,-0.052,-0.062,-0.0572,-0.0572,-0.0573,-0.0573,0,-0.0224,-0.0251,-0.0303,-0.0357,-0.0374,-0.04,-0.0472,-0.0504,-0.0547,-0.0564,-0.0594,-0.0606,-0.0625,-0.0615,-0.0623,-0.063,-0.0615,-0.0606,-0.0605,-0.053,-0.0519,-0.0554,-0.0573,-0.0573,-0.0573,-0.0573,-0.0573,0,-0.0262,-0.0302,-0.0355,-0.0367,-0.0419,-0.0451,-0.0486,-0.0532,-0.0561,-0.06,-0.0603,-0.0643,-0.0643,-0.0649,-0.0609,-0.0626,-0.0593,-0.0618,-0.0536,-0.0529,-0.0607,-0.0605,-0.0621,-0.0621,-0.0621,-0.0622,-0.0622,0,-0.0293,-0.0329,-0.0381,-0.0408,-0.0474,-0.0496,-0.0556,-0.0589,-0.0613,-0.0622,-0.0642,-0.0634,-0.0651,-0.0627,-0.0611,-0.0552,-0.0596,-0.0525,-0.0516,-0.0609,-0.0608,-0.0605,-0.0604,-0.062,-0.062,-0.0621,-0.0621,0,-0.0309,-0.0347,-0.0409,-0.0472,-0.0494,-0.0544,-0.0584,-0.0609,-0.0634,-0.0634,-0.0637,-0.0626,-0.0586,-0.058,-0.056,-0.0533,-0.0499,-0.047,-0.0533,-0.053,-0.0425,-0.0425,-0.0386,-0.0383,-0.038,-0.0378,-0.0377,0,-0.0312,-0.035,-0.0445,-0.0478,-0.0499,-0.056,-0.0582,-0.0623,-0.0623,-0.0609,-0.0592,-0.056,-0.0541,-0.0449,-0.0454,-0.0416,-0.0415,-0.0389,-0.0441,-0.0408,-0.0403,-0.0407,-0.0411,-0.0373,-0.0372,-0.0371,-0.0371,0,-0.0302,-0.0349,-0.04,-0.0465,-0.0509,-0.0546,-0.0574,-0.0572,-0.058,-0.0606,-0.0527,-0.0482,-0.0426,-0.0397,-0.0359,-0.034,-0.0406,-0.0363,-0.037,-0.0419,-0.0391,-0.039,-0.0396,-0.0362,-0.0363,-0.0364,-0.0364,0,-0.0287,-0.0323,-0.0392,-0.0441,-0.0485,-0.049,-0.0529,-0.0505,-0.0515,-0.0496,-0.0459,-0.0416,-0.041,-0.0352,-0.0316,-0.0287,-0.0298,-0.0295,-0.0305,-0.0315,-0.0312,-0.0268,-0.0183,0,0,0,0,0,-0.0267,-0.03,-0.0344,-0.0409,-0.0435,-0.0451,-0.0485,-0.0509,-0.0518,-0.045,-0.0455,-0.0394,-0.032,-0.0303,-0.026,-0.0288,-0.0304,-0.0235,-0.0309,-0.0313,-0.0323,-0.0325,0,0,0,0,0,0,-0.0259,-0.0311,-0.0333,-0.0335,-0.0348,-0.0372,-0.0385,-0.0403,-0.0378,-0.0385,-0.0358,-0.0356,-0.0309,-0.0333,-0.0245,-0.024,-0.0274,-0.0222,-0.022,-0.0307,-0.0317,-0.0325,-0.033,0,0,0,0,0]},{"header":{"parameterUnit":"m.s-1","parameterCategory":2,"la1":30.2991,"la2":30.254,"lo1":-89.0895,"lo2":-89.0444,"dy":0.0017,"dx":0.0017,"nx":28,"ny":28,"refTime":"2024-03-20T03:00:00:Z","depth":"4","parameterNumber":3,"parameterNumberName":"V-component_of_CURRENTS"},"data":[0,0,0,0,0,0,0,0,0,0,0,0,0,0,0,0,0,0,0,0,0,0,0,0,0,0,0,0,0,0,0,0,0,0,0,0,0,0,0,0,0,0,0,0,0,0,0,0,0,0,0,0,0,0,0,0,0,0,-0.0434,-0.0434,0,-0.0446,-0.0446,-0.0447,-0.0441,-0.044,-0.044,-0.044,-0.0431,-0.0431,-0.0431,0,0,0,0,0,0,0,0,0,0,0,0,0,-0.0399,-0.04,-0.0434,-0.0434,-0.0434,-0.0446,-0.0446,-0.0447,-0.0441,-0.044,-0.044,-0.0439,-0.0431,-0.0431,-0.0431,0,0,0,0,0,0,0,0,0,0,0,0,0,-0.0414,-0.04,-0.0434,-0.0432,-0.0431,-0.0446,-0.0446,-0.0447,-0.0441,-0.044,-0.044,-0.0439,-0.0431,-0.0431,-0.0431,-0.0445,0,0,-0.0432,-0.0432,0,0,0,0,0,0,0,0,-0.0414,-0.0416,-0.0432,-0.0432,-0.0432,-0.044,-0.0431,-0.0445,-0.0441,-0.0439,-0.044,-0.0439,-0.0432,-0.0432,-0.0438,-0.0445,-0.0445,-0.0432,-0.0432,-0.0432,-0.0432,0,0,0,0,0,0,0,-0.0413,-0.0415,-0.044,-0.0432,-0.0432,-0.0428,-0.043,-0.0434,-0.0439,-0.0439,-0.0438,-0.0438,-0.0431,-0.0437,-0.0437,-0.0444,-0.0432,-0.0432,-0.0432,-0.0432,-0.0425,-0.0425,0,0,0,0,0,0,-0.041,-0.0414,-0.044,-0.044,-0.0419,-0.0429,-0.0431,-0.0439,-0.044,-0.0439,-0.0438,-0.0438,-0.0437,-0.0437,-0.0437,-0.0419,-0.0432,-0.0432,-0.0432,-0.0426,-0.0425,-0.0425,0,0,0,0,0,0,-0.0409,-0.0412,-0.0439,-0.0426,-0.0429,-0.043,-0.044,-0.044,-0.0451,-0.0439,-0.0438,-0.045,-0.0437,-0.0436,-0.0434,-0.042,-0.0432,-0.0433,-0.0426,-0.0426,-0.0425,-0.0405,0,0,0,0,0,0,-0.0408,-0.0412,-0.0423,-0.0426,-0.0429,-0.0446,-0.044,-0.044,-0.0451,-0.045,-0.0449,-0.0447,-0.0436,-0.0434,-0.0434,-0.042,-0.0433,-0.0426,-0.0426,-0.0425,-0.0406,-0.0404,-0.0402,0,0,0,0,0,-0.0407,-0.0421,-0.0424,-0.0427,-0.0443,-0.0447,-0.0448,-0.0447,-0.0452,-0.0456,-0.045,-0.0447,-0.043,-0.0434,-0.0435,-0.042,-0.0427,-0.0426,-0.0425,-0.0407,-0.0404,-0.0402,0,0,0,0,0,0,-0.0412,-0.0422,-0.0425,-0.0442,-0.0443,-0.0445,-0.0454,-0.0456,-0.0458,-0.046,-0.045,-0.0447,-0.0436,-0.0437,-0.0442,-0.0416,-0.0426,-0.0425,-0.0411,-0.0409,-0.0407,-0.0372,-0.0433,0,0,0,0,0,-0.0419,-0.0433,-0.0436,-0.045,-0.0454,-0.0459,-0.0464,-0.0463,-0.0462,-0.0463,-0.0461,-0.0453,-0.0435,-0.043,-0.0422,-0.0417,-0.0377,-0.0407,-0.0405,-0.0403,-0.0375,-0.029,-0.0276,-0.0422,-0.0422,-0.0422,0,0,-0.0428,-0.0433,-0.0443,-0.0452,-0.0458,-0.0455,-0.0461,-0.0471,-0.046,-0.0462,-0.0458,-0.0452,-0.0433,-0.0416,-0.0411,-0.0414,-0.0347,-0.0402,-0.04,-0.0373,-0.0287,-0.0273,-0.0259,-0.0422,-0.0422,-0.0422,0,0,-0.0435,-0.0455,-0.0462,-0.0463,-0.0468,-0.0466,-0.047,-0.0477,-0.0474,-0.047,-0.0457,-0.0431,-0.0437,-0.0395,-0.0379,-0.0362,-0.0341,-0.0382,-0.0339,-0.0258,-0.0244,-0.0232,-0.0188,-0.0171,-0.0378,-0.0378,-0.0378,0,-0.0442,-0.0448,-0.0464,-0.0461,-0.0458,-0.047,-0.0464,-0.0462,-0.0464,-0.0446,-0.0465,-0.0415,-0.0409,-0.0341,-0.0337,-0.0352,-0.0322,-0.0351,-0.0252,-0.0238,-0.0225,-0.0183,-0.0165,-0.0377,-0.0377,-0.0377,-0.0377,0,-0.0442,-0.0447,-0.0452,-0.0449,-0.0449,-0.0452,-0.0445,-0.0444,-0.0447,-0.043,-0.0385,-0.0366,-0.032,-0.0326,-0.0328,-0.024,-0.0256,-0.026,-0.0252,-0.0209,-0.0169,-0.015,-0.0375,-0.0376,-0.0376,-0.0376,0,0,-0.0453,-0.0452,-0.0453,-0.0441,-0.0443,-0.0438,-0.0423,-0.0395,-0.036,-0.0359,-0.0297,-0.0266,-0.0249,-0.0227,-0.022,-0.0158,-0.0062,-0.0177,-0.0173,-0.0124,0.0093,-0.0015,-0.0006,-0.0052,-0.0049,-0.0046,0.0076,0,-0.0445,-0.0429,-0.0433,-0.0415,-0.0405,-0.0405,-0.038,-0.0356,-0.0332,-0.0279,-0.0236,-0.0185,-0.0213,-0.0186,-0.0124,-0.0075,-0.0008,-0.0095,0.0036,0.004,-0.0051,0.0015,-0.0033,0.009,0.0094,0.0097,0.0099,0,-0.0433,-0.0424,-0.0404,-0.0378,-0.0375,-0.0364,-0.0314,-0.0294,-0.0224,-0.0201,-0.0134,-0.0106,-0.0015,-0.0046,0.0092,0.0031,0.0073,0.0107,0.0112,0.0027,-0.0032,0.0044,0.0133,0.0131,0.0128,0.0126,0.0124,0,-0.0411,-0.0398,-0.0378,-0.0373,-0.035,-0.0335,-0.032,-0.0265,-0.023,-0.0139,-0.009,0.0005,0.0066,0.0144,0.0177,0.0154,0.0316,0.03,0.025,0.0241,0.0293,0.0279,0.0429,0.0429,0.0429,0.0429,0.0428,0,-0.0387,-0.0374,-0.0366,-0.0354,-0.0331,-0.0315,-0.027,-0.0239,-0.0163,-0.0102,-0.0043,0.0026,0.012,0.0198,0.0229,0.028,0.0365,0.0285,0.0283,0.0291,0.0275,0.0305,0.0289,0.0433,0.0432,0.0431,0.043,0,-0.0366,-0.0359,-0.0342,-0.0323,-0.032,-0.0303,-0.0272,-0.023,-0.0156,-0.0066,-0.0033,0.0074,0.016,0.0224,0.0349,0.0341,0.0401,0.0398,0.0385,0.0375,0.0264,0.0247,0.0392,0.039,0.0388,0.0386,0.0385,0,-0.0351,-0.0339,-0.0333,-0.0335,-0.0333,-0.0313,-0.0299,-0.0241,-0.0182,-0.005,0.0007,0.0108,0.0164,0.0264,0.0316,0.0381,0.0367,0.0404,0.0359,0.0286,0.027,0.0256,0.0242,0.0382,0.0381,0.038,0.038,0,-0.0335,-0.0338,-0.0329,-0.0336,-0.0333,-0.0317,-0.0277,-0.0226,-0.0135,-0.0073,0.0034,0.0086,0.0175,0.0232,0.0269,0.0312,0.0386,0.0383,0.0388,0.0346,0.0274,0.0257,0.0246,0.0373,0.0374,0.0374,0.0375,0,-0.0334,-0.0334,-0.0332,-0.0337,-0.0337,-0.0304,-0.0285,-0.0216,-0.0156,-0.0003,0.0015,0.0105,0.0166,0.0197,0.0233,0.0254,0.026,0.0264,0.0275,0.0283,0.0185,0.0074,0.0139,0,0,0,0,0,-0.0329,-0.0329,-0.0336,-0.033,-0.033,-0.0327,-0.0259,-0.0225,-0.0128,-0.0069,-0.002,0.0042,0.0098,0.0138,0.0141,0.0194,0.0264,0.0196,0.0275,0.0333,0.0342,0.0231,0,0,0,0,0,0,-0.0323,-0.033,-0.0332,-0.0324,-0.0324,-0.031,-0.0268,-0.0208,-0.0155,-0.0071,-0.0041,0.0,0.0056,0.0075,0.0121,0.0134,0.0176,0.0234,0.0234,0.0329,0.0336,0.0343,0.0232,0,0,0,0,0]}]]